TimeCST,TemperatureF,Dew PointF,Humidity,Sea Level PressureIn,VisibilityMPH,Wind Direction,Wind SpeedMPH,Gust SpeedMPH,PrecipitationIn,Events,Conditions,WindDirDegrees,DateUTC
12:15 AM,42.8,39.2,87,29.72,5.0,NE,3.5,-,N/A,,Scattered Clouds,50,2013-12-04 06:15:00
12:35 AM,42.8,41.0,93,29.73,5.0,Calm,Calm,-,N/A,,Partly Cloudy,0,2013-12-04 06:35:00
12:55 AM,42.8,39.2,87,29.73,4.0,Calm,Calm,-,N/A,,Scattered Clouds,0,2013-12-04 06:55:00
1:15 AM,44.6,44.6,100,29.74,5.0,Calm,Calm,-,N/A,,Overcast,0,2013-12-04 07:15:00
1:35 AM,44.6,41.0,87,29.74,4.0,Calm,Calm,-,N/A,,Overcast,0,2013-12-04 07:35:00
1:55 AM,44.6,42.8,93,29.74,5.0,East,3.5,-,N/A,,Overcast,90,2013-12-04 07:55:00
2:15 AM,46.4,44.6,93,29.73,5.0,East,5.8,-,N/A,,Overcast,90,2013-12-04 08:15:00
2:35 AM,48.2,44.6,87,29.72,4.0,East,4.6,-,N/A,,Mostly Cloudy,80,2013-12-04 08:35:00
2:55 AM,48.2,46.4,93,29.71,3.0,East,4.6,-,N/A,,Overcast,90,2013-12-04 08:55:00
3:15 AM,48.2,46.4,93,29.71,1.5,East,4.6,-,N/A,,Overcast,80,2013-12-04 09:15:00
3:35 AM,48.2,46.4,93,29.70,0.2,East,3.5,-,N/A,,Overcast,90,2013-12-04 09:35:00
3:55 AM,50.0,48.2,94,29.71,0.2,ESE,5.8,-,N/A,,Overcast,110,2013-12-04 09:55:00
4:15 AM,50.0,48.2,94,29.70,0.5,East,4.6,-,N/A,,Overcast,100,2013-12-04 10:15:00
4:35 AM,50.0,48.2,94,29.70,0.5,ESE,3.5,-,N/A,,Overcast,120,2013-12-04 10:35:00
4:55 AM,51.8,48.2,88,29.70,0.5,ESE,5.8,-,N/A,,Overcast,120,2013-12-04 10:55:00
5:15 AM,51.8,48.2,88,29.71,0.5,East,4.6,-,N/A,,Overcast,100,2013-12-04 11:15:00
5:35 AM,51.8,48.2,88,29.70,0.5,East,5.8,-,N/A,,Overcast,80,2013-12-04 11:35:00
5:55 AM,51.8,50.0,94,29.70,0.5,ESE,6.9,-,N/A,,Overcast,110,2013-12-04 11:55:00
6:15 AM,51.8,50.0,94,29.70,0.5,ESE,3.5,-,N/A,,Overcast,110,2013-12-04 12:15:00
6:35 AM,51.8,50.0,94,29.70,0.2,East,3.5,-,N/A,,Overcast,80,2013-12-04 12:35:00
6:55 AM,51.8,51.8,100,29.70,0.2,East,4.6,-,N/A,,Overcast,90,2013-12-04 12:55:00
7:15 AM,51.8,51.8,100,29.70,0.2,Calm,Calm,-,N/A,,Overcast,0,2013-12-04 13:15:00
7:35 AM,53.6,51.8,94,29.70,0.2,East,4.6,-,N/A,,Overcast,100,2013-12-04 13:35:00
7:55 AM,53.6,51.8,94,29.69,0.2,East,4.6,-,N/A,,Overcast,100,2013-12-04 13:55:00
8:15 AM,53.6,53.6,100,29.69,0.5,ESE,5.8,-,N/A,,Overcast,120,2013-12-04 14:15:00
8:35 AM,55.4,53.6,94,29.70,1.0,SE,6.9,-,N/A,,Overcast,140,2013-12-04 14:35:00
8:55 AM,55.4,55.4,100,29.70,1.0,SE,8.1,-,N/A,,Overcast,140,2013-12-04 14:55:00
9:15 AM,57.2,55.4,94,29.70,1.5,SSE,9.2,-,N/A,,Overcast,150,2013-12-04 15:15:00
9:35 AM,57.2,55.4,94,29.69,2.0,SSE,9.2,-,N/A,,Overcast,160,2013-12-04 15:35:00
9:55 AM,59.0,57.2,94,29.70,3.0,South,8.1,-,N/A,,Overcast,170,2013-12-04 15:55:00
10:15 AM,59.0,57.2,94,29.69,4.0,South,10.4,-,N/A,,Overcast,170,2013-12-04 16:15:00
10:35 AM,-9999,-9999,N/A,29.67,5.0,South,11.5,16.1,N/A,,Overcast,180,2013-12-04 16:35:00
10:55 AM,-9999,-9999,N/A,29.66,7.0,South,13.8,-,N/A,,Overcast,190,2013-12-04 16:55:00
11:15 AM,-9999,-9999,N/A,29.65,8.0,South,12.7,-,N/A,,Overcast,180,2013-12-04 17:15:00
11:35 AM,-9999,-9999,N/A,29.65,9.0,South,16.1,-,N/A,,Overcast,190,2013-12-04 17:35:00
11:55 AM,-9999,-9999,N/A,29.63,10.0,South,19.6,25.3,N/A,,Overcast,190,2013-12-04 17:55:00
12:15 PM,-9999,-9999,N/A,29.62,10.0,SSW,18.4,26.5,N/A,,Overcast,200,2013-12-04 18:15:00
12:35 PM,-9999,-9999,N/A,29.61,10.0,SSW,19.6,28.8,N/A,,Mostly Cloudy,200,2013-12-04 18:35:00
12:55 PM,-9999,-9999,N/A,29.60,10.0,SSW,19.6,29.9,N/A,,Mostly Cloudy,200,2013-12-04 18:55:00
1:15 PM,-9999,-9999,N/A,29.60,10.0,SSW,23.0,31.1,N/A,,Mostly Cloudy,200,2013-12-04 19:15:00
1:35 PM,-9999,-9999,N/A,29.60,10.0,SSW,20.7,28.8,N/A,,Scattered Clouds,200,2013-12-04 19:35:00
1:55 PM,-9999,-9999,N/A,29.61,10.0,SSW,17.3,25.3,N/A,,Mostly Cloudy,200,2013-12-04 19:55:00
2:15 PM,-9999,-9999,N/A,29.59,10.0,South,21.9,29.9,N/A,,Overcast,190,2013-12-04 20:15:00
2:35 PM,-9999,-9999,N/A,29.60,10.0,South,19.6,28.8,N/A,,Overcast,190,2013-12-04 20:35:00
2:55 PM,-9999,-9999,N/A,29.59,10.0,South,23.0,29.9,N/A,,Overcast,190,2013-12-04 20:55:00
3:15 PM,-9999,-9999,N/A,29.59,10.0,SSW,19.6,-,N/A,,Mostly Cloudy,200,2013-12-04 21:15:00
3:35 PM,-9999,-9999,N/A,29.60,10.0,SSW,18.4,29.9,N/A,,Scattered Clouds,200,2013-12-04 21:35:00
3:55 PM,-9999,-9999,N/A,29.60,10.0,SSW,17.3,26.5,N/A,,Scattered Clouds,200,2013-12-04 21:55:00
4:15 PM,64.4,57.2,77,29.61,10.0,SSW,20.7,27.6,N/A,,Clear,210,2013-12-04 22:15:00
4:35 PM,64.4,57.2,77,29.63,10.0,SSW,16.1,-,N/A,,Mostly Cloudy,210,2013-12-04 22:35:00
4:55 PM,62.6,57.2,82,29.65,10.0,SW,11.5,-,N/A,,Overcast,220,2013-12-04 22:55:00
5:15 PM,64.4,57.2,77,29.66,10.0,SW,11.5,-,N/A,,Overcast,220,2013-12-04 23:15:00
5:35 PM,64.4,57.2,77,29.67,10.0,SW,15.0,-,N/A,,Overcast,220,2013-12-04 23:35:00
5:55 PM,64.4,57.2,77,29.67,10.0,SW,13.8,-,N/A,,Mostly Cloudy,220,2013-12-04 23:55:00
6:15 PM,64.4,57.2,77,29.68,10.0,SW,16.1,20.7,N/A,,Mostly Cloudy,220,2013-12-05 00:15:00
6:35 PM,64.4,57.2,77,29.68,10.0,SW,12.7,-,N/A,,Overcast,220,2013-12-05 00:35:00
6:55 PM,64.4,57.2,77,29.70,10.0,SW,12.7,-,N/A,,Overcast,220,2013-12-05 00:55:00
7:15 PM,62.6,57.2,82,29.70,10.0,SW,13.8,-,N/A,,Overcast,220,2013-12-05 01:15:00
7:35 PM,62.6,57.2,82,29.71,10.0,SSW,13.8,-,N/A,,Mostly Cloudy,210,2013-12-05 01:35:00
7:55 PM,62.6,57.2,82,29.72,10.0,SSW,12.7,-,N/A,,Mostly Cloudy,210,2013-12-05 01:55:00
8:15 PM,62.6,57.2,82,29.72,10.0,SSW,12.7,-,N/A,,Scattered Clouds,200,2013-12-05 02:15:00
8:35 PM,60.8,57.2,88,29.72,10.0,SSW,11.5,-,N/A,,Partly Cloudy,210,2013-12-05 02:35:00
8:55 PM,60.8,57.2,88,29.73,10.0,SSW,12.7,-,N/A,,Mostly Cloudy,210,2013-12-05 02:55:00
9:15 PM,60.8,57.2,88,29.74,10.0,SSW,11.5,-,N/A,,Overcast,210,2013-12-05 03:15:00
9:35 PM,60.8,57.2,88,29.74,10.0,SW,9.2,-,N/A,,Overcast,220,2013-12-05 03:35:00
9:55 PM,57.2,55.4,94,29.76,10.0,SW,9.2,-,N/A,,Mostly Cloudy,230,2013-12-05 03:55:00
10:15 PM,57.2,48.2,72,29.78,10.0,WNW,6.9,-,N/A,,Mostly Cloudy,300,2013-12-05 04:15:00
10:35 PM,55.4,46.4,72,29.80,10.0,WNW,5.8,-,N/A,,Scattered Clouds,290,2013-12-05 04:35:00
10:55 PM,53.6,46.4,77,29.81,10.0,WNW,8.1,-,N/A,,Clear,300,2013-12-05 04:55:00
11:15 PM,51.8,44.6,76,29.82,10.0,NW,4.6,-,N/A,,Clear,310,2013-12-05 05:15:00
11:35 PM,50.0,42.8,76,29.83,10.0,WNW,4.6,-,N/A,,Partly Cloudy,300,2013-12-05 05:35:00
11:55 PM,48.2,42.8,82,29.84,10.0,Calm,Calm,-,N/A,,Partly Cloudy,0,2013-12-05 05:55:00